Overview Statistics Trail Chart Weather Telemetry Raw packets
 

This is the latest recevied weather packets stored in our database for station/object K8KCS-13. If no packets are shown the sender has not sent any weather packets the latest 10 day(s).

<< 1 2 3 4 5 6 7 >>
Time Temp. Humidity Pressure Rain* Wind** Luminosity Snow
1788552570 26.67° C 75% 1015.3 hPa 0 mm - 487 W/m² -
1788552268 25.56° C 75% 1015.3 hPa 0 mm - 366 W/m² -
1788551964 25.56° C 75% 1015.4 hPa 0 mm - 308 W/m² -
1788551662 25.56° C 75% 1015.5 hPa 0 mm - 310 W/m² -
1788551362 25.56° C 75% 1015.6 hPa 0 mm - 289 W/m² -
1788551061 25.56° C 77% 1015.7 hPa 0 mm - 284 W/m² -
1788550757 25.56° C 76% 1015.8 hPa 0 mm - 262 W/m² -
1788550452 25° C 75% 1015.6 hPa 0 mm - 258 W/m² -
1788550147 25° C 76% 1015.9 hPa 0 mm - 256 W/m² -
1788549843 25° C 77% 1016 hPa 0 mm - 240 W/m² -
1788549544 25° C 77% 1015.8 hPa 0 mm - 236 W/m² -
1788549235 25° C 77% 1015.7 hPa 0 mm - 205 W/m² -
1788548932 25° C 79% 1015.7 hPa 0 mm - 173 W/m² -
1788548627 25° C 79% 1015.6 hPa 0 mm - 206 W/m² -
1788548323 24.44° C 79% 1016 hPa 0 mm - 195 W/m² -
1788548018 25° C 80% 1016.6 hPa 0 mm - 170 W/m² -
1788547718 25° C 83% 1016.6 hPa 0 mm - 200 W/m² -
1788547413 24.44° C 82% 1016.7 hPa 0 mm - 245 W/m² -
1788547108 24.44° C 82% 1017 hPa 0 mm - 255 W/m² -
1788546803 24.44° C 83% 1017.8 hPa 0 mm - 237 W/m² -
1788546499 25° C 82% 1017.9 hPa 0 mm - 185 W/m² -
1788546194 25° C 80% 1018 hPa 0 mm - 463 W/m² -
1788545889 25° C 80% 1018.1 hPa 0 mm - 479 W/m² -
1788545589 25° C 82% 1017.9 hPa 0 mm - 372 W/m² -
1788545284 24.44° C 83% 1018.2 hPa 0 mm - 615 W/m² -

* Rain latest hour (hover to see other rain measurements)
** Current wind speed in m/s (hover to see current wind gust speed)